Date String (YYYY-MM-DD hh:mm:ss) UTC,Instrument flags,Ambient pressure (hPa),Sample flow (lpm),Bypass flow (lpm),Sample temperature (°C),Ambient temperature (°C),ASC tube jacket temperature (°C),LED temperature (°C),Box temperature (°C),Sample RH (%),Span deviation,Mass concentration (μg/m³),Mass concentration (μg/m³),Mass concentration (μg/m³)
DateTimeUTC,F1_M11,P_M11,Q1_M11,Q2_M11,T1_M11,T2_M11,T3_M11,T4_M11,T5_M11,U1_M11,ZSPAN_M11,X0_M11,X2_M11,X1_M11
2023-05-17 20:00:00,,0829.1,5.01,0.00,29.2,27.2,00.0,37.5,30.8,16.8,0000.0,0009.02,0004.49,0003.50
2023-05-17 20:01:00,,0829.1,5.01,0.00,29.2,27.4,00.0,37.5,30.9,16.7,0000.0,0009.59,0004.50,0003.50
2023-05-17 20:02:00,,0829.1,5.01,0.00,29.2,27.6,00.0,37.5,30.9,17.2,0000.0,0009.82,0004.52,0003.50
2023-05-17 20:03:00,,0829.1,4.99,0.00,29.2,27.8,00.0,37.5,30.9,17.4,0000.0,0010.06,0004.57,0003.50
2023-05-17 20:04:00,,0829.2,4.99,0.00,29.3,27.9,00.0,37.5,31.0,17.8,0000.0,0010.23,0004.58,0003.49
2023-05-17 20:05:00,,0829.2,5.00,0.00,29.3,28.0,00.0,37.5,31.0,18.4,0000.0,0010.38,0004.61,0003.48
2023-05-17 20:06:00,,0829.2,5.00,0.00,29.3,28.1,00.0,37.5,31.1,17.2,0000.0,0010.34,0004.58,0003.48
2023-05-17 20:07:00,,0829.2,5.00,0.00,29.4,28.2,00.0,37.6,31.1,16.9,0000.0,0010.17,0004.58,0003.48
2023-05-17 20:08:00,,0829.2,4.99,0.00,29.4,27.1,00.0,37.5,31.0,16.7,0000.0,0010.26,0004.56,0003.48
2023-05-17 20:09:00,,0829.1,5.01,0.00,29.3,25.8,00.0,37.5,30.8,16.4,0000.0,0010.20,0004.55,0003.47
2023-05-17 20:10:00,,0829.1,5.01,0.00,29.3,25.8,00.0,37.4,30.7,16.3,0000.0,0010.07,0004.52,0003.47
2023-05-17 20:11:00,,0829.2,5.01,0.00,29.2,26.0,00.0,37.4,30.6,16.4,0000.0,0009.88,0004.52,0003.48
2023-05-17 20:12:00,,0829.1,5.00,0.00,29.2,26.3,00.0,37.4,30.7,16.7,0000.0,0009.40,0004.56,0003.49
2023-05-17 20:13:00,,0829.1,5.00,0.00,29.2,26.6,00.0,37.5,30.7,16.3,0000.0,0009.13,0004.59,0003.49
2023-05-17 20:14:00,,0829.1,5.00,0.00,29.2,26.9,00.0,37.5,30.8,16.2,0000.0,0009.01,0004.55,0003.49
2023-05-17 20:15:00,,0829.1,4.99,0.00,29.2,27.2,00.0,37.5,30.8,17.6,0000.0,0009.33,0004.55,0003.48
2023-05-17 20:16:00,,0829.0,5.00,0.00,29.2,27.4,00.0,37.5,30.9,17.1,0000.0,0009.21,0004.53,0003.48
2023-05-17 20:17:00,,0829.0,5.00,0.00,29.2,27.6,00.0,37.5,30.9,16.9,0000.0,0009.22,0004.56,0003.48
2023-05-17 20:18:00,,0829.0,5.00,0.00,29.3,27.7,00.0,37.5,31.0,16.3,0000.0,0009.45,0004.57,0003.48
2023-05-17 20:19:00,,0829.0,5.00,0.00,29.3,27.9,00.0,37.5,31.0,16.4,0000.0,0009.69,0004.56,0003.48
2023-05-17 20:20:00,,0829.0,5.00,0.00,29.3,28.0,00.0,37.6,31.0,16.0,0000.0,0009.65,0004.53,0003.48
2023-05-17 20:21:00,,0829.0,4.99,0.00,29.3,28.0,00.0,37.6,31.1,16.4,0000.0,0009.74,0004.50,0003.48
2023-05-17 20:22:00,,0828.9,5.00,0.00,29.3,26.8,00.0,37.5,30.9,16.9,0000.0,0009.82,0004.50,0003.47
2023-05-17 20:23:00,,0829.0,5.02,0.00,29.3,25.9,00.0,37.5,30.8,17.0,0000.0,0009.92,0004.49,0003.46
2023-05-17 20:24:00,,0828.9,5.01,0.00,29.2,26.0,00.0,37.4,30.7,16.7,0000.0,0010.55,0004.39,0003.43
2023-05-17 20:25:00,,0829.0,5.00,0.00,29.2,26.2,00.0,37.5,30.6,17.5,0000.0,0010.48,0004.36,0003.41
2023-05-17 20:26:00,,0829.0,4.99,0.00,29.2,26.5,00.0,37.5,30.7,16.4,0000.0,0010.38,0004.26,0003.39
2023-05-17 20:27:00,,0828.9,5.00,0.00,29.2,26.8,00.0,37.5,30.8,16.4,0000.0,0010.46,0004.25,0003.37
2023-05-17 20:28:00,,0828.9,5.00,0.00,29.2,27.0,00.0,37.5,30.8,16.5,0000.0,0010.89,0004.23,0003.36
2023-05-17 20:29:00,,0829.0,5.00,0.00,29.2,27.2,00.0,37.5,30.8,16.3,0000.0,0010.98,0004.22,0003.34
2023-05-17 20:30:00,,0829.0,4.99,0.00,29.2,27.4,00.0,37.5,30.9,16.3,0000.0,0010.42,0004.17,0003.32
2023-05-17 20:31:00,,0828.9,4.99,0.00,29.2,27.6,00.0,37.5,30.9,15.8,0000.0,0010.55,0004.18,0003.30
2023-05-17 20:32:00,,0828.9,5.00,0.00,29.2,27.7,00.0,37.5,31.0,16.1,0000.0,0010.42,0004.18,0003.27
2023-05-17 20:33:00,,0828.8,5.00,0.00,29.3,27.9,00.0,37.5,31.0,16.6,0000.0,0010.53,0004.12,0003.24
2023-05-17 20:34:00,,0828.9,4.99,0.00,29.3,28.0,00.0,37.5,31.0,16.8,0000.0,0010.45,0004.07,0003.23
2023-05-17 20:35:00,,0828.9,5.01,0.00,29.3,28.1,00.0,37.6,31.1,15.6,0000.0,0009.75,0004.08,0003.23
2023-05-17 20:36:00,,0828.9,4.99,0.00,29.4,27.4,00.0,37.6,31.0,16.4,0000.0,0009.67,0004.08,0003.24
2023-05-17 20:37:00,,0828.8,5.01,0.00,29.3,26.0,00.0,37.5,30.8,16.3,0000.0,0009.43,0004.13,0003.26
2023-05-17 20:38:00,,0828.8,5.01,0.00,29.3,25.8,00.0,37.4,30.8,16.9,0000.0,0009.23,0004.15,0003.27
2023-05-17 20:39:00,,0828.8,5.00,0.00,29.2,26.0,00.0,37.4,30.7,15.7,0000.0,0008.84,0004.16,0003.28
2023-05-17 20:40:00,,0828.8,4.99,0.00,29.2,26.3,00.0,37.4,30.7,15.4,0000.0,0008.72,0004.17,0003.29
2023-05-17 20:41:00,,0828.8,5.01,0.00,29.2,26.6,00.0,37.5,30.7,15.9,0000.0,0009.00,0004.17,0003.30
2023-05-17 20:42:00,,0828.8,5.00,0.00,29.2,26.9,00.0,37.5,30.8,16.1,0000.0,0008.87,0004.16,0003.32
2023-05-17 20:43:00,,0828.8,4.99,0.00,29.2,27.2,00.0,37.5,30.8,15.7,0000.0,0008.90,0004.19,0003.34
2023-05-17 20:44:00,,0828.7,5.00,0.00,29.2,27.4,00.0,37.5,30.9,15.7,0000.0,0009.12,0004.30,0003.37
2023-05-17 20:45:00,,0828.7,5.01,0.00,29.2,27.6,00.0,37.5,30.9,16.1,0000.0,0009.16,0004.32,0003.39
2023-05-17 20:46:00,,0828.7,5.01,0.00,29.3,27.7,00.0,37.5,31.0,15.6,0000.0,0009.12,0004.33,0003.40
2023-05-17 20:47:00,,0828.7,4.99,0.00,29.3,27.9,00.0,37.5,31.0,15.5,0000.0,0009.06,0004.34,0003.40
2023-05-17 20:48:00,,0828.7,5.00,0.00,29.3,28.0,00.0,37.6,31.1,15.6,0000.0,0009.23,0004.35,0003.40
2023-05-17 20:49:00,,0828.7,5.01,0.00,29.4,28.1,00.0,37.6,31.1,16.5,0000.0,0009.47,0004.39,0003.41
2023-05-17 20:50:00,,0828.7,5.00,0.00,29.4,28.0,00.0,37.6,31.1,15.9,0000.0,0009.64,0004.40,0003.43
2023-05-17 20:51:00,,0828.7,4.98,0.00,29.4,26.5,00.0,37.5,30.9,16.2,0000.0,0010.94,0004.40,0003.42
2023-05-17 20:52:00,,0828.7,5.01,0.00,29.3,25.9,00.0,37.5,30.8,15.7,0000.0,0011.19,0004.39,0003.41
2023-05-17 20:53:00,,0828.7,5.02,0.00,29.3,26.0,00.0,37.5,30.7,15.9,0000.0,0011.38,0004.39,0003.41
2023-05-17 20:54:00,,0828.6,5.00,0.00,29.2,26.2,00.0,37.5,30.7,16.4,0000.0,0011.50,0004.37,0003.41
2023-05-17 20:55:00,,0828.6,5.00,0.00,29.2,26.5,00.0,37.5,30.8,16.1,0000.0,0011.35,0004.33,0003.39
2023-05-17 20:56:00,,0828.6,5.00,0.00,29.2,26.9,00.0,37.5,30.8,17.9,0000.0,0011.86,0004.33,0003.38
2023-05-17 20:57:00,,0828.6,5.01,0.00,29.2,27.1,00.0,37.5,30.9,19.2,0000.0,0011.92,0004.35,0003.37
2023-05-17 20:58:00,,0828.6,5.00,0.00,29.3,27.4,00.0,37.5,30.9,18.8,0000.0,0012.01,0004.32,0003.37
2023-05-17 20:59:00,,0828.6,4.99,0.00,29.3,27.6,00.0,37.5,31.0,19.0,0000.0,0012.12,0004.34,0003.37
